Location: El Para�so
(10.4896°N, 66.9245°W)
Time: 20:02:13
(UTC+00:00)

SL-8 Rocket - Pass Details

Date: 08 August 2020
Orbit: 958 x 990 km, 82.9° (Epoch: 01 October)

Event Time Altitude Azimuth Distance (km) Brightness Sun altitude
Rises 23:17:59 0° 174° (S) 3,628 6.7 -7.7°
Reaches altitude 10° 23:20:31 10° 170° (S) 2,683 6.0 -8.3°
Maximum altitude 23:26:31 57° 92° (E) 1,115 4.0 -9.7°
Drops below altitude 10° 23:32:31 10° 15° (NNE) 2,693 6.4 -11.1°
Sets 23:35:04 0° 11° (NNE) 3,643 7.1 -11.7°
